Regional Weather Roundup
Issued by NWS Midland/Odessa, TX

Skip options and go directly to product.
Home | Oldest Version | Previous Version | Current Version | All | Text Only | Save Text | Print | Product List | Glossary Off

Skip product version selection by date and time.   

162
ASUS44 KMAF 271502
RWRMAF
MIDLAND AREA WEATHER ROUNDUP
NATIONAL WEATHER SERVICE MIDLAND TX
1000 AM CDT WED AUG 27 2014

...IN SOUTHWEST TEXAS AND SOUTHEAST NEW MEXICO...

CITY           SKY/WX    TMP DP  RH WIND       PRES   REMARKS
ALPINE         SUNNY     78  54  43 CALM      30.28R
ANDREWS        FAIR      81  58  45 S14       30.15R
ARTESIA        NOT AVBL
BIG SPRING     SUNNY     83  64  52 S12       30.15R
CARLSBAD       CLOUDY    74  63  68 NW13      30.17R
DRYDEN           N/A     86  66  51 SE8       30.08S
FORT STOCKTON  SUNNY     78  62  57 CALM      30.14R
GUAD PASS      CLOUDY    70  57  63 NE20      30.29S
HOBBS          SUNNY     75  59  57 CALM      30.19R
MARFA          SUNNY     73  55  53 S5        30.28R
MIDLAND AIRPK  SUNNY     82  60  48 SW9       30.14S
MIDLAND INTL   SUNNY     81  62  52 SW8       30.13R
ODESSA         SUNNY     81  62  52 S13       30.15R
PECOS          SUNNY     77  64  64 W7        30.11S
PRESIDIO       FAIR      86  54  33 E7        30.11S
SEMINOLE       MOSUNNY   81  55  40 S8        30.17R
SNYDER         SUNNY     82  66  59 SW14      30.13R
WINK           SUNNY     82  58  43 E8        30.11R
$$
...OTHER STATIONS IN TEXAS...

CITY           SKY/WX    TMP DP  RH WIND       PRES   REMARKS
ABILENE        SUNNY     86  67  52 S10       30.10R
AMARILLO       CLOUDY    72  65  78 SE10      30.18S
AUSTIN         MOSUNNY   84  72  67 E6        30.04R
BROWNSVILLE    MOSUNNY   87  76  69 N7        29.95R
CORPUS CHRISTI MOSUNNY   87  73  62 NE13      29.97R
DALLAS FTW     SUNNY     85  69  58 S3        30.07R
DEL RIO        SUNNY     85  69  58 E8        30.03R
EL PASO        PTSUNNY   72  65  78 N13       30.20R
HOUSTON INT    MOSUNNY   86  72  62 NE10      30.01R
LUBBOCK        PTSUNNY   77  63  61 SE10      30.16R
SAN ANGELO     SUNNY     82  68  62 S7        30.10R
SAN ANTONIO    MOSUNNY   85  70  60 CALM      30.04R
WACO           SUNNY     85  71  63 VRB3      30.06R
WICHITA FALLS  NOT AVBL
$$
...OTHER LOCATIONS IN NEW MEXICO...

CITY           SKY/WX    TMP DP  RH WIND       PRES   REMARKS
ALAMAGORDO     CLOUDY    66  64  94 NW6       30.23R
ALBUQUERQUE    PTSUNNY   64  57  78 CALM      30.32R
CANNON AFB     PTSUNNY   71  65  79 W8        30.23R
CLOVIS           N/A     73  59  60 W5        30.24F
HOLLOMAN AFB   PTSUNNY   65  65 100 NW12      30.21R
ROSWELL        CLOUDY    72  62  71 NE8       30.19R
RUIDOSO        CLOUDY    57  55  94 CALM      30.39R
SANTA FE       CLOUDY    60  56  86 CALM      30.34S
TRUTH OR CONSE MOSUNNY   66  60  81 NE6       30.26R
TUCUMCARI        N/A     73  63  70 SW5       30.18F
$$

USA.gov is the U.S. government's official web portal to all federal, state and local government web resources and services.